Regional Weather Roundup
Issued by NWS

Home | Current Version | Previous Version | Graphics & Text | Print | Product List | Glossary On
Versions: 1 2 3 4 5 6 7 8 9 10 11 12 13 14 15 16 17 18 19 20 21 22 23 24 25 26 27 28 29 30 31 32 33 34 35 36 37 38 39 40 41 42 43 44 45 46 47 48 49 50
809
ASUS45 KBOU 200407
RWRCO

WEATHER ROUNDUP FOR COLORADO
NATIONAL WEATHER SERVICE DENVER/BOULDER CO
900 PM MST THU JAN 19 2017

NOTE: "FAIR" INDICATES FEW OR NO CLOUDS BELOW 12000 FEET WITH NO
SIGNIFICANT WEATHER AND/OR OBSTRUCTIONS TO VISIBILITY.

COZ001>005-013-030-031-200500-
...NORTHWEST COLORADO...

CITY           SKY/WX    TMP DP  RH WIND       PRES   REMARKS
CRAIG          LGT SNOW  28  25  88 NE3       29.68F FOG
HAYDEN         CLOUDY    25  19  80 NE5       29.67F WCI  19
MEEKER         LGT SNOW  30  29  96 CALM      29.67F FOG
MOUNT WERNER   NOT AVBL
STEAMBOAT SPGS CLOUDY    22  20  94 CALM      29.67F
WALDEN           N/A     25  18  74 S12       29.64F WCI  14
$$

COZ006>008-011-200500-
...WEST CENTRAL VALLEYS...

CITY           SKY/WX    TMP DP  RH WIND       PRES   REMARKS
GRAND JUNCTION LGT SNOW  31  31 100 E5        29.70F FOG     WCI  26
MONTROSE       CLOUDY    31  31 100 CALM      29.73S FOG
EAGLE          LGT SNOW  27  27 100 CALM      29.71F FOG
RIFLE          LGT SNOW  30  30 100 CALM      29.70F FOG
DELTA          LGT RAIN  36  34  94 NE3       29.73S
NUCLA          FOG       32  32 100 CALM      29.75F VSB 1
$$

COZ017>023-064>068-200500-
...SOUTHWEST COLORADO...

CITY           SKY/WX    TMP DP  RH WIND       PRES   REMARKS
DURANGO        LGT SNOW  30  28  92 CALM      29.76F FOG
CORTEZ         LGT SNOW  32  32 100 CALM      29.75F FOG
PAGOSA SPRINGS LGT SNOW  30  30 100 SW3       29.75S
TELLURIDE      NOT AVBL
WOLF CREEK PAS CLOUDY    14  14 100 S8        29.75F WCI   3
$$

COZ009-010-012-014-032>034-037-058>063-200500-
...CENTRAL COLORADO...

CITY           SKY/WX    TMP DP  RH WIND       PRES   REMARKS
ASPEN          LGT SNOW  27  26  96 CALM      29.66F FOG
BUENA VISTA    LGT SNOW  28  25  90 SE12      29.66F WCI  17
COPPER MTN     LGT SNOW  19  14  79 MISG      29.67F VSB 1
BERTHOUD PASS  NOT AVBL
COTTONWOOD PAS NOT AVBL
GUNNISON       LGT SNOW  14  10  84 CALM      29.75F FOG
KREMMLING      LGT SNOW  19  14  79 E3        29.71F
LEADVILLE      LGT SNOW  20  17  88 N7        29.65F VSB 3/4 WCI  11
MONARCH PASS   SNOW      16  12  86 SW14G24   29.77F VSB 1/2 WCI   1
SALIDA         CLOUDY    34  22  60 SW10G18   29.72F WCI  26
SUNLIGHT       LGT SNOW  19  18  93 SW13G20   29.70F WCI   7
WILKERSON PASS LGT SNOW  19  19 100 SW14G21   29.66F VSB 3/4 WCI   6
$$

COZ069>075-200500-
...SAN LUIS VALLEY/SANGRE DE CRISTO MOUNTAINS...

CITY           SKY/WX    TMP DP  RH WIND       PRES   REMARKS
ALAMOSA        LGT SNOW  20  19  96 W5        29.74F FOG     WCI  13
LA VETA PASS   LGT SNOW  21  19  93 NE38G46   29.65R VSB 3/4 WCI   1
SAGUACHE       LGT SNOW  23  21  93 CALM      29.74F
$$

COZ035-036-038>040-200500-
...NORTHERN COLORADO FRONT RANGE...

CITY           SKY/WX    TMP DP  RH WIND       PRES   REMARKS
DENVER INTL AP FAIR      35  21  56 SW7       29.53R WCI  29
DMNS CITY PARK   N/A     34  22  61 N6        29.51F WCI  29
AURORA         PTCLDY    38  20  48 CALM      29.53R
FRONT RANGE AP NOT AVBL
ERIE MUNI ARPT FAIR      30  23  77 CALM      29.52F
BOULDER MUN AP FAIR      37  21  52 CALM      29.52S
CENTENNIAL     FAIR      36  18  48 SW5       29.52F
BROOMFIELD     PTCLDY    45  18  33 NW6       29.53S
FORT COLLINS   FAIR      36  23  60 N6        29.53S
LONGMONT       FAIR      36  23  60 W7        29.54F
$$

COZ041-046-047-076>085-087-088-200500-
...PIKES PEAK/PALMER DIVIDE AND SOUTHERN FOOTHILLS...

CITY           SKY/WX    TMP DP  RH WIND       PRES   REMARKS
COLO. SPRINGS  MOCLDY    30  18  60 N8        29.53F WCI  22
A. F. ACADEMY  FAIR      28  15  58 N6        29.53F WCI  22
SCHRIEVER AFB  NOT AVBL
ELLICOTT       FAIR     N/A N/A N/A E6        29.51F
FALCON         FAIR      32  17  52 W6        29.54F WCI  26
FORT CARSON    MOCLDY    37  19  48 W5        29.52F
LIMON          FAIR      21  19  92 CALM      29.54R
MONUMENT HILL  FAIR      30  18  59 SW5       29.56F WCI  25
TRINIDAD       FAIR      32  22  66 NW12      29.52F WCI  23
$$

COZ042>045-048>051-090-091-200500-
...NORTHEAST COLORADO...

CITY           SKY/WX    TMP DP  RH WIND       PRES   REMARKS
GREELEY ARPT   FAIR      28  24  85 W3        29.54R
AKRON          FAIR      36  22  56 W3        29.51F
BURLINGTON     FOG       31  31 100 S9        29.54R VSB 1/4 WCI  23
WRAY           NOT AVBL
STERLING       FAIR      28  27  93 CALM      29.51F
HOLYOKE        FAIR      27  23  86 S5        29.53S WCI  21
FORT MORGAN    FAIR      32  23  71 N8        29.53R WCI  25
$$

COZ086-089-092>099-200500-
...SOUTHEAST COLORADO...

CITY           SKY/WX    TMP DP  RH WIND       PRES   REMARKS
PUEBLO         FAIR      36  27  69 N8        29.50F
LA JUNTA       FAIR      32  24  72 CALM      29.52R
LAMAR          FOG       31  30  96 E10       29.53S VSB 1/4 WCI  22
SPRINGFIELD      N/A     26  26 100 SW5       29.53S WCI  20
$$




USA.gov is the U.S. government's official web portal to all federal, state and local government web resources and services.